Location: Gairloch Mountain Observatory
(46.1383°N, 60.9640°W)
Time: 21:16:06
(UTC-03:00)

CENTAUR R/B - Visible Passes

Search period start: 28 August 2015 00:00
Search period end: 07 September 2015 00:00
Orbit: 873 x 1316 km, 63.5° (Epoch: 21 August)

Date Brightness Start Highest point End Pass type
(mag) Time Alt. Az. Time Alt. Az. Time Alt. Az.
28 Aug 4.5 01:09:13 10° NNW 01:15:33 30° NNE 01:22:26 10° E visible
28 Aug 3.1 02:59:48 10° NW 03:07:28 79° NE 03:15:39 10° SE visible
28 Aug 3.7 04:51:16 10° NW 04:57:48 29° WSW 05:04:23 10° SSW visible
28 Aug 4.2 20:34:27 10° WSW 20:40:26 38° NW 20:47:02 10° NNE visible
28 Aug 5.0 22:28:18 10° NW 22:33:18 20° N 22:38:37 10° NE visible
29 Aug 4.8 00:20:54 10° NNW 00:26:41 25° NNE 00:32:56 10° ENE visible
29 Aug 3.5 02:11:39 10° NW 02:19:04 57° NE 02:27:04 10° ESE visible
29 Aug 3.3 04:02:34 10° NW 04:09:52 45° WSW 04:17:26 10° S visible
29 Aug 4.9 21:39:04 10° WNW 21:44:19 23° NNW 21:49:55 10° NE visible
29 Aug 5.0 23:32:25 10° NW 23:37:42 21° NNE 23:43:24 10° ENE visible
30 Aug 4.0 01:23:31 10° NNW 01:30:32 42° NE 01:38:06 10° ESE visible
30 Aug 2.9 03:14:10 10° NW 03:21:48 67° WSW 03:26:02 31° SSE visible
30 Aug 4.3 05:07:08 10° WNW 05:11:38 16° WSW 05:12:47 15° WSW visible
30 Aug 4.7 20:49:50 10° W 20:55:25 28° NNW 21:01:28 10° NNE visible
30 Aug 5.0 22:43:40 10° NW 22:48:40 20° N 22:54:01 10° NE visible
31 Aug 4.4 00:35:21 10° NNW 00:41:49 32° NNE 00:48:50 10° E visible
31 Aug 2.9 02:25:56 10° NW 02:33:37 86° NE 02:35:51 53° SE visible
31 Aug 3.9 04:17:34 10° WNW 04:22:51 25° W 04:22:51 25° W visible
31 Aug 5.0 21:54:39 10° NW 21:59:37 20° N 22:04:55 10° NE visible
31 Aug 4.7 23:47:04 10° NNW 23:52:59 26° NNE 23:59:23 10° ENE visible
01 Sep 3.3 01:37:46 10° NW 01:45:16 61° NE 01:47:17 48° E visible
01 Sep 3.6 03:28:46 10° NW 03:34:21 37° W 03:34:21 37° W visible
01 Sep 4.9 21:05:26 10° WNW 21:10:37 22° NNW 21:16:08 10° NE visible
01 Sep 4.8 22:58:38 10° NW 23:04:01 22° NNE 23:09:50 10° ENE visible
02 Sep 3.8 00:49:37 10° NNW 00:56:45 45° NE 00:59:18 35° E visible
02 Sep 3.3 02:40:20 10° NW 02:46:23 53° W 02:46:23 53° W visible
02 Sep 4.7 20:16:12 10° WNW 20:21:42 26° NNW 20:27:38 10° NNE visible
02 Sep 4.9 22:09:57 10° NW 22:15:00 20° N 22:20:25 10° NE visible
03 Sep 4.2 00:01:28 10° NNW 00:08:05 34° NNE 00:11:36 24° ENE visible
03 Sep 3.1 01:52:03 10° NW 01:58:43 71° NW 01:58:43 71° NW visible
03 Sep 4.6 03:43:55 10° WNW 03:45:49 16° WNW 03:45:49 16° WNW visible
03 Sep 4.9 21:21:00 10° NW 21:25:57 20° N 21:31:13 10° NE visible
03 Sep 4.5 23:13:13 10° NNW 23:19:16 27° NNE 23:24:06 16° ENE visible
04 Sep 3.2 01:03:52 10° NW 01:11:14 66° NE 01:11:14 66° NE visible
04 Sep 4.3 02:55:01 10° NW 02:58:21 25° WNW 02:58:21 25° WNW visible
04 Sep 4.8 20:31:49 10° WNW 20:36:56 21° NNW 20:42:22 10° NE visible
04 Sep 4.7 22:24:49 10° NW 22:30:20 23° NNE 22:36:17 10° ENE visible
05 Sep 3.6 00:15:44 10° NNW 00:22:58 48° NE 00:23:53 46° ENE visible
05 Sep 3.9 02:06:29 10° NW 02:11:00 37° WNW 02:11:00 37° WNW visible
05 Sep 4.8 21:36:13 10° NW 21:41:19 20° N 21:46:48 10° NE visible
05 Sep 4.1 23:27:34 10° NNW 23:34:20 36° NNE 23:36:38 31° ENE visible
06 Sep 3.4 01:18:11 10° NW 01:23:46 54° NW 01:23:46 54° NW visible
06 Sep 5.0 03:10:19 10° WNW 03:10:54 12° WNW 03:10:54 12° WNW visible
06 Sep 4.8 20:47:19 10° NW 20:52:16 20° N 20:57:33 10° NE visible
06 Sep 4.4 22:39:22 10° NNW 22:45:33 28° NNE 22:49:27 20° ENE visible
